FW8871 Weather Reports


Display with metric or nautical units.
time (UTC)temp
F
wind
direction
speed
MPH
gust
MPH
rain 1hr
in
rain 24hr
in
rain mn
in
humidity
%
barometer
mb
20260903212545 103 270 4.0 8.0 0.00 0.00 0.00 19 1011.0
20260903212047 102 218 0.0 17.0 0.00 0.00 0.00 19 1011.2
20260903211616 102 266 4.0 17.0 0.00 0.00 0.00 19 1011.2
20260903211050 102 187 7.0 13.0 0.00 0.00 0.00 19 1011.3
20260903210549 102 217 8.0 16.0 0.00 0.00 0.00 20 1011.3
20260903205545 101 173 6.0 17.0 0.00 0.00 0.00 22 1011.4
20260903205045 101 204 8.0 17.0 0.00 0.00 0.00 22 1011.5
20260903204607 102 189 8.0 16.0 0.00 0.00 0.00 22 1011.6
20260903204047 102 161 8.0 13.0 0.00 0.00 0.00 23 1011.6
20260903203548 102 186 4.0 12.0 0.00 0.00 0.00 22 1011.6
20260903203100 101 230 7.0 13.0 0.00 0.00 0.00 24 1011.7
20260903202546 101 168 8.0 14.0 0.00 0.00 0.00 23 1011.7
20260903202049 101 191 8.0 14.0 0.00 0.00 0.00 24 1011.8
20260903201606 101 186 4.0 12.0 0.00 0.00 0.00 22 1011.8
20260903201045 101 198 8.0 12.0 0.00 0.00 0.00 22 1011.9
20260903200545 101 217 7.0 12.0 0.00 0.00 0.00 23 1011.9
20260903200110 100 190 3.0 14.0 0.00 0.00 0.00 23 1011.8
20260903195545 100 214 4.0 14.0 0.00 0.00 0.00 24 1011.8
20260903195050 100 165 9.0 14.0 0.00 0.00 0.00 24 1011.9
20260903194605 100 184 7.0 14.0 0.00 0.00 0.00 24 1011.9
20260903194046 99 228 5.0 12.0 0.00 0.00 0.00 25 1011.8
20260903193546 99 197 4.0 16.0 0.00 0.00 0.00 26 1012.0
20260903193107 99 246 10.0 18.0 0.00 0.00 0.00 26 1012.1
20260903192545 99 193 7.0 18.0 0.00 0.00 0.00 26 1012.1
20260903192046 99 146 10.0 20.0 0.00 0.00 0.00 27 1012.2
20260903191609 99 167 10.0 20.0 0.00 0.00 0.00 27 1012.1
20260903191047 99 218 10.0 17.0 0.00 0.00 0.00 27 1012.2
20260903190550 98 207 8.0 17.0 0.00 0.00 0.00 28 1012.2
20260903190106 98 146 11.0 17.0 0.00 0.00 0.00 28 1012.3
20260903185546 97 240 10.0 17.0 0.00 0.00 0.00 28 1012.4
20260903185047 97 193 10.0 17.0 0.00 0.00 0.00 28 1012.5
20260903184610 97 191 8.0 17.0 0.00 0.00 0.00 29 1012.5
20260903184046 97 192 9.0 17.0 0.00 0.00 0.00 28 1012.7
20260903183546 96 152 8.0 17.0 0.00 0.00 0.00 30 1012.7
20260903183122 96 248 10.0 17.0 0.00 0.00 0.00 31 1012.8
20260903182546 96 233 7.0 15.0 0.00 0.00 0.00 30 1012.9
20260903182047 96 229 9.0 14.0 0.00 0.00 0.00 30 1013.0
20260903181643 95 226 10.0 16.0 0.00 0.00 0.00 32 1013.0
20260903181048 95 221 9.0 16.0 0.00 0.00 0.00 33 1013.0
20260903180547 94 188 10.0 16.0 0.00 0.00 0.00 32 1013.1
20260903180109 94 197 10.0 16.0 0.00 0.00 0.00 34 1013.2
20260903175546 94 210 11.0 16.0 0.00 0.00 0.00 36 1013.3
20260903175048 93 210 11.0 16.0 0.00 0.00 0.00 36 1013.2
20260903174614 92 241 11.0 17.0 0.00 0.00 0.00 36 1013.3
20260903174046 92 215 12.0 17.0 0.00 0.00 0.00 37 1013.5
20260903173548 92 230 12.0 16.0 0.00 0.00 0.00 36 1013.4
20260903173112 92 243 11.0 16.0 0.00 0.00 0.00 36 1013.4
20260903172548 92 246 12.0 16.0 0.00 0.00 0.00 37 1013.5
20260903172045 92 221 11.0 17.0 0.00 0.00 0.00 38 1013.5
20260903171606 92 233 12.0 19.0 0.00 0.00 0.00 37 1013.6
20260903171046 91 226 13.0 19.0 0.00 0.00 0.00 39 1013.6
20260903170546 91 203 10.0 18.0 0.00 0.00 0.00 38 1013.6
20260903170114 91 200 13.0 18.0 0.00 0.00 0.00 39 1013.6
20260903165545 90 205 13.0 17.0 0.00 0.00 0.00 39 1013.6
20260903165047 91 231 12.0 17.0 0.00 0.00 0.00 38 1013.4
20260903164610 91 210 11.0 21.0 0.00 0.00 0.00 39 1013.4
20260903164046 92 222 13.0 21.0 0.00 0.00 0.00 39 1013.5
20260903163546 91 203 14.0 21.0 0.00 0.00 0.00 40 1013.5
20260903163102 91 178 14.0 20.0 0.00 0.00 0.00 41 1013.4
20260903162548 91 197 15.0 20.0 0.00 0.00 0.00 40 1013.5
20260903162048 90 223 13.0 19.0 0.00 0.00 0.00 42 1013.4
20260903161617 89 229 13.0 20.0 0.00 0.00 0.00 42 1013.6
20260903161048 89 191 13.0 20.0 0.00 0.00 0.00 43 1013.4
20260903160546 89 175 13.0 21.0 0.00 0.00 0.00 44 1013.6
20260903160105 88 238 12.0 21.0 0.00 0.00 0.00 45 1013.5
20260903155545 88 208 15.0 20.0 0.00 0.00 0.00 45 1013.5
20260903155046 87 207 13.0 21.0 0.00 0.00 0.00 45 1013.6
20260903154604 87 204 15.0 21.0 0.00 0.00 0.00 46 1013.6
20260903154045 87 231 16.0 23.0 0.00 0.00 0.00 46 1013.6
20260903153546 87 200 16.0 25.0 0.00 0.00 0.00 46 1013.5
20260903153107 87 196 14.0 25.0 0.00 0.00 0.00 46 1013.6
20260903152548 86 202 18.0 25.0 0.00 0.00 0.00 47 1013.5
20260903152045 86 191 16.0 24.0 0.00 0.00 0.00 48 1013.6
20260903151617 85 181 17.0 25.0 0.00 0.00 0.00 49 1013.5
20260903151045 85 209 16.0 25.0 0.00 0.00 0.00 49 1013.4
20260903150547 84 203 16.0 25.0 0.00 0.00 0.00 51 1013.5
20260903150104 84 193 17.0 25.0 0.00 0.00 0.00 52 1013.4
20260903145549 84 186 16.0 24.0 0.00 0.00 0.00 53 1013.5
20260903145046 83 210 16.0 27.0 0.00 0.00 0.00 53 1013.4
20260903144607 83 203 14.0 27.0 0.00 0.00 0.00 54 1013.5
20260903144046 82 181 14.0 27.0 0.00 0.00 0.00 55 1013.6
20260903143547 82 162 18.0 25.0 0.00 0.00 0.00 55 1013.6
20260903143108 82 149 18.0 25.0 0.00 0.00 0.00 56 1013.6
20260903142546 82 175 16.0 23.0 0.00 0.00 0.00 56 1013.6
20260903142046 81 170 17.0 23.0 0.00 0.00 0.00 57 1013.5
20260903141605 81 162 16.0 23.0 0.00 0.00 0.00 58 1013.5
20260903141048 81 178 15.0 23.0 0.00 0.00 0.00 58 1013.6
20260903140546 80 162 15.0 22.0 0.00 0.00 0.00 59 1013.6
20260903140105 80 182 15.0 22.0 0.00 0.00 0.00 59 1013.5
20260903135546 80 165 15.0 20.0 0.00 0.00 0.00 59 1013.8
20260903135046 79 155 12.0 20.0 0.00 0.00 0.00 60 1013.8
20260903134610 79 198 13.0 18.0 0.00 0.00 0.00 61 1013.8
20260903134047 78 202 13.0 19.0 0.00 0.00 0.00 62 1013.8
20260903133548 78 186 13.0 19.0 0.00 0.00 0.00 63 1013.7
20260903133102 78 144 13.0 19.0 0.00 0.00 0.00 63 1013.7
20260903132547 77 174 13.0 19.0 0.00 0.00 0.00 64 1013.7
20260903132046 77 139 13.0 19.0 0.00 0.00 0.00 64 1013.6
20260903131558 76 167 13.0 19.0 0.00 0.00 0.00 65 1013.5
20260903131050 75 146 12.0 16.0 0.00 0.00 0.00 66 1013.4
20260903130552 75 158 12.0 17.0 0.00 0.00 0.00 67 1013.3
20260903130106 75 158 13.0 17.0 0.00 0.00 0.00 66 1013.2
20260903125549 75 155 12.0 17.0 0.00 0.00 0.00 66 1013.2
20260903125050 75 167 12.0 17.0 0.00 0.00 0.00 67 1013.2
20260903124606 75 152 12.0 18.0 0.00 0.00 0.00 67 1013.2
20260903124049 75 176 12.0 18.0 0.00 0.00 0.00 67 1013.2
20260903123550 74 178 13.0 18.0 0.00 0.00 0.00 68 1013.1
20260903123056 74 158 13.0 19.0 0.00 0.00 0.00 68 1013.0
20260903122550 74 139 13.0 19.0 0.00 0.00 0.00 68 1013.0
20260903122050 74 160 13.0 18.0 0.00 0.00 0.00 68 1013.0
20260903121607 74 171 12.0 18.0 0.00 0.00 0.00 68 1012.9
20260903121049 74 185 13.0 19.0 0.00 0.00 0.00 67 1013.0
20260903120549 75 174 14.0 19.0 0.00 0.00 0.00 67 1013.0
20260903120105 75 184 13.0 19.0 0.00 0.00 0.00 67 1013.0
20260903115549 75 158 14.0 20.0 0.00 0.00 0.00 66 1013.1
20260903115049 75 137 13.0 20.0 0.00 0.00 0.00 66 1013.0
20260903114604 75 167 14.0 20.0 0.00 0.00 0.00 66 1013.0
20260903114046 75 155 14.0 20.0 0.00 0.00 0.00 66 1012.9
20260903113554 75 162 14.0 20.0 0.00 0.00 0.00 66 1012.9
20260903113107 75 157 14.0 20.0 0.00 0.00 0.00 66 1012.9
20260903112554 75 183 13.0 20.0 0.00 0.00 0.00 66 1013.0
20260903112050 75 136 13.0 19.0 0.00 0.00 0.00 66 1013.0
20260903111601 75 172 13.0 19.0 0.00 0.00 0.00 66 1013.1
20260903111049 75 180 13.0 18.0 0.00 0.00 0.00 65 1013.1
20260903110550 75 163 14.0 18.0 0.00 0.00 0.00 65 1013.1
20260903105550 75 142 14.0 19.0 0.00 0.00 0.00 65 1013.1
20260903105050 75 158 12.0 20.0 0.00 0.00 0.00 65 1013.1
20260903104601 75 162 14.0 21.0 0.00 0.00 0.00 64 1013.0
20260903104049 75 152 14.0 21.0 0.00 0.00 0.00 64 1013.1
20260903103549 75 144 14.0 21.0 0.00 0.00 0.00 64 1013.1
20260903103104 76 160 15.0 21.0 0.00 0.00 0.00 63 1013.1
20260903102549 76 155 15.0 21.0 0.00 0.00 0.00 63 1013.1
20260903102049 76 162 14.0 20.0 0.00 0.00 0.00 63 1013.2
20260903101610 76 158 15.0 20.0 0.00 0.00 0.00 63 1013.2
20260903101045 76 158 15.0 20.0 0.00 0.00 0.00 62 1013.2
20260903100548 76 158 15.0 19.0 0.00 0.00 0.00 62 1013.3
20260903100105 76 156 15.0 20.0 0.00 0.00 0.00 62 1013.2
20260903095546 76 163 14.0 20.0 0.00 0.00 0.00 61 1013.2
20260903095046 76 144 14.0 20.0 0.00 0.00 0.00 61 1013.2
20260903094610 76 162 14.0 20.0 0.00 0.00 0.00 61 1013.2
20260903094046 76 146 14.0 19.0 0.00 0.00 0.00 61 1013.4
20260903093546 76 152 14.0 19.0 0.00 0.00 0.00 60 1013.4
20260903093109 76 148 13.0 19.0 0.00 0.00 0.00 60 1013.6
20260903092545 76 167 13.0 19.0 0.00 0.00 0.00 60 1013.6
20260903092047 76 149 13.0 17.0 0.00 0.00 0.00 59 1013.6
20260903091608 76 143 12.0 17.0 0.00 0.00 0.00 59 1013.6
20260903091049 76 130 11.0 16.0 0.00 0.00 0.00 58 1013.6
20260903090546 76 162 11.0 16.0 0.00 0.00 0.00 58 1013.6
20260903090101 76 155 12.0 17.0 0.00 0.00 0.00 57 1013.5
20260903085545 77 158 12.0 17.0 0.00 0.00 0.00 57 1013.6
20260903085050 77 164 12.0 17.0 0.00 0.00 0.00 57 1013.6
20260903084603 77 159 12.0 18.0 0.00 0.00 0.00 56 1013.6
20260903084047 77 154 13.0 18.0 0.00 0.00 0.00 56 1013.6
20260903083547 77 153 11.0 18.0 0.00 0.00 0.00 56 1013.7
20260903083109 77 153 12.0 17.0 0.00 0.00 0.00 55 1013.6
20260903082546 77 162 12.0 17.0 0.00 0.00 0.00 55 1013.6
20260903082046 77 150 12.0 16.0 0.00 0.00 0.00 55 1013.7
20260903081604 77 154 11.0 17.0 0.00 0.00 0.00 55 1013.6
20260903081049 77 146 12.0 17.0 0.00 0.00 0.00 55 1013.6
20260903080547 77 150 11.0 16.0 0.00 0.00 0.00 55 1013.5
20260903080110 77 176 13.0 16.0 0.00 0.00 0.00 54 1013.5
20260903075547 77 149 11.0 16.0 0.00 0.00 0.00 54 1013.4
20260903075050 77 151 11.0 16.0 0.00 0.00 0.00 54 1013.4
20260903074603 77 127 11.0 16.0 0.00 0.00 0.00 54 1013.4
20260903074046 77 155 12.0 16.0 0.00 0.00 0.00 54 1013.5
20260903073547 77 142 13.0 16.0 0.00 0.00 0.00 54 1013.5
20260903073116 77 152 12.0 16.0 0.00 0.00 0.00 54 1013.5
20260903072546 77 168 12.0 16.0 0.00 0.00 0.00 54 1013.5
20260903072046 77 163 11.0 16.0 0.00 0.00 0.00 53 1013.6
20260903071608 77 153 11.0 15.0 0.00 0.00 0.00 53 1013.6
20260903071057 77 154 11.0 14.0 0.00 0.00 0.00 53 1013.5
20260903070549 78 143 11.0 15.0 0.00 0.00 0.00 52 1013.5
20260903070109 78 150 11.0 16.0 0.00 0.00 0.00 52 1013.6
20260903065546 78 150 10.0 16.0 0.00 0.00 0.00 52 1013.6
20260903065046 78 141 11.0 14.0 0.00 0.00 0.00 52 1013.5
20260903064558 78 161 11.0 14.0 0.00 0.00 0.00 52 1013.5
20260903064047 78 181 11.0 15.0 0.00 0.00 0.00 52 1013.5
20260903063546 78 181 11.0 15.0 0.00 0.00 0.00 51 1013.5
20260903063118 78 165 10.0 15.0 0.00 0.00 0.00 51 1013.5
20260903062546 78 155 11.0 16.0 0.00 0.00 0.00 50 1013.5
20260903062048 79 148 10.0 16.0 0.00 0.00 0.00 50 1013.5
20260903061605 79 171 11.0 15.0 0.00 0.00 0.00 50 1013.4
20260903061049 79 160 11.0 16.0 0.00 0.00 0.00 49 1013.5
20260903060546 79 161 11.0 16.0 0.00 0.00 0.00 49 1013.5
20260903060100 80 140 11.0 16.0 0.00 0.00 0.00 48 1013.5
20260903055546 80 157 11.0 15.0 0.00 0.00 0.00 48 1013.4
20260903055049 81 165 11.0 17.0 0.00 0.00 0.00 48 1013.5
20260903054557 81 168 12.0 17.0 0.00 0.00 0.00 48 1013.6
20260903054047 81 194 11.0 16.0 0.00 0.00 0.00 48 1013.5
20260903053549 81 159 11.0 17.0 0.00 0.00 0.00 47 1013.5
20260903053105 81 202 10.0 17.0 0.00 0.00 0.00 48 1013.4
20260903052548 81 176 11.0 16.0 0.00 0.00 0.00 48 1013.3
20260903052050 80 174 11.0 15.0 0.00 0.00 0.00 48 1013.3
20260903051603 81 156 11.0 14.0 0.00 0.00 0.00 48 1013.2
20260903051048 81 147 9.0 14.0 0.00 0.00 0.00 47 1013.3
20260903050549 81 151 10.0 15.0 0.00 0.00 0.00 47 1013.3
20260903045546 82 157 10.0 15.0 0.00 0.00 0.00 46 1013.4
20260903045052 82 159 11.0 16.0 0.00 0.00 0.00 45 1013.5
20260903044606 83 184 11.0 16.0 0.00 0.00 0.00 45 1013.4
20260903044049 83 160 10.0 17.0 0.00 0.00 0.00 45 1013.3
20260903043545 83 167 11.0 17.0 0.00 0.00 0.00 44 1013.3
20260903043110 83 152 13.0 17.0 0.00 0.00 0.00 44 1013.3
20260903042547 83 194 12.0 16.0 0.00 0.00 0.00 44 1013.2
20260903042046 83 172 12.0 16.0 0.00 0.00 0.00 44 1013.2
20260903041558 83 151 11.0 16.0 0.00 0.00 0.00 44 1013.3
20260903041046 83 140 12.0 15.0 0.00 0.00 0.00 44 1013.3
20260903040550 83 165 10.0 13.0 0.00 0.00 0.00 43 1013.2
20260903040115 84 176 10.0 13.0 0.00 0.00 0.00 43 1013.2
20260903035545 84 168 9.0 14.0 0.00 0.00 0.00 43 1013.4
20260903035045 84 182 9.0 14.0 0.00 0.00 0.00 42 1013.4
20260903034602 84 189 10.0 14.0 0.00 0.00 0.00 42 1013.3
20260903034046 84 157 9.0 13.0 0.00 0.00 0.00 42 1013.2
20260903033547 84 170 9.0 13.0 0.00 0.00 0.00 42 1013.2
20260903033103 84 155 9.0 13.0 0.00 0.00 0.00 42 1013.2
20260903032546 84 167 8.0 12.0 0.00 0.00 0.00 42 1013.2
20260903032047 84 157 8.0 12.0 0.00 0.00 0.00 42 1013.2
20260903031605 84 157 8.0 11.0 0.00 0.00 0.00 42 1013.2
20260903031045 84 160 7.0 10.0 0.00 0.00 0.00 42 1013.1
20260903030549 84 169 7.0 10.0 0.00 0.00 0.00 41 1012.9
20260903030111 84 136 7.0 9.0 0.00 0.00 0.00 41 1012.9
20260903025546 85 141 8.0 11.0 0.00 0.00 0.00 40 1012.9
20260903025046 85 135 8.0 11.0 0.00 0.00 0.00 39 1012.7
20260903024605 86 165 8.0 12.0 0.00 0.00 0.00 39 1012.7
20260903024046 86 157 8.0 12.0 0.00 0.00 0.00 39 1012.7
20260903023548 86 145 8.0 11.0 0.00 0.00 0.00 39 1012.7
20260903023108 86 139 7.0 11.0 0.00 0.00 0.00 39 1012.5
20260903022546 86 150 8.0 11.0 0.00 0.00 0.00 39 1012.7
20260903022046 86 157 8.0 10.0 0.00 0.00 0.00 39 1012.5
20260903021604 86 139 6.0 10.0 0.00 0.00 0.00 39 1012.4
20260903021046 86 149 7.0 12.0 0.00 0.00 0.00 39 1012.3
20260903020546 87 155 8.0 12.0 0.00 0.00 0.00 39 1012.4
20260903020105 87 147 8.0 12.0 0.00 0.00 0.00 38 1012.3
20260903015546 88 146 9.0 12.0 0.00 0.00 0.00 38 1012.2
20260903015050 88 139 8.0 12.0 0.00 0.00 0.00 38 1012.2
20260903014605 88 152 7.0 9.0 0.00 0.00 0.00 37 1012.1
20260903014046 89 146 7.0 10.0 0.00 0.00 0.00 36 1012.1
20260903013552 89 139 6.0 13.0 0.00 0.00 0.00 36 1012.0
20260903013106 90 152 7.0 13.0 0.00 0.00 0.00 36 1012.1
20260903012547 90 139 6.0 9.0 0.00 0.00 0.00 36 1012.0
20260903012046 90 171 6.0 12.0 0.00 0.00 0.00 36 1011.9
20260903011606 90 150 5.0 12.0 0.00 0.00 0.00 36 1011.9
20260903011045 91 159 5.0 11.0 0.00 0.00 0.00 35 1011.8
20260903010546 92 151 4.0 7.0 0.00 0.00 0.00 34 1011.8
20260903010104 94 155 5.0 10.0 0.00 0.00 0.00 32 1011.8
20260903005547 94 163 6.0 10.0 0.00 0.00 0.00 32 1011.7
20260903005046 95 169 7.0 13.0 0.00 0.00 0.00 31 1011.7
20260903004625 96 176 9.0 13.0 0.00 0.00 0.00 30 1011.8
20260903004046 96 217 9.0 17.0 0.00 0.00 0.00 30 1011.7
20260903003547 97 174 9.0 17.0 0.00 0.00 0.00 30 1011.5
20260903003102 97 194 9.0 17.0 0.00 0.00 0.00 30 1011.6
20260903002546 97 172 12.0 17.0 0.00 0.00 0.00 29 1011.5
20260903002046 97 198 12.0 17.0 0.00 0.00 0.00 29 1011.6
20260903001559 98 184 12.0 18.0 0.00 0.00 0.00 29 1011.6
20260903001045 98 221 11.0 18.0 0.00 0.00 0.00 29 1011.5
20260903000545 98 203 12.0 18.0 0.00 0.00 0.00 29 1011.5
20260903000054 98 188 12.0 18.0 0.00 0.00 0.00 30 1011.6
20260902235547 98 220 13.0 20.0 0.00 0.00 0.00 29 1011.6
20260902235047 98 186 12.0 20.0 0.00 0.00 0.00 29 1011.6
20260902234603 98 170 16.0 21.0 0.00 0.00 0.00 29 1011.6
20260902234046 98 198 14.0 21.0 0.00 0.00 0.00 29 1011.7
20260902233547 98 186 13.0 21.0 0.00 0.00 0.00 29 1011.7
20260902233105 98 191 13.0 19.0 0.00 0.00 0.00 29 1011.8
20260902232547 99 205 14.0 21.0 0.00 0.00 0.00 28 1011.8
20260902232048 99 161 12.0 23.0 0.00 0.00 0.00 28 1011.8
20260902231602 99 184 13.0 23.0 0.00 0.00 0.00 28 1011.7
20260902231046 99 169 15.0 23.0 0.00 0.00 0.00 28 1011.7
20260902230547 99 214 11.0 20.0 0.00 0.00 0.00 29 1011.7
20260902230106 100 203 12.0 20.0 0.00 0.00 0.00 28 1011.8
20260902225546 100 194 13.0 21.0 0.00 0.00 0.00 28 1011.8
20260902225047 100 183 16.0 23.0 0.00 0.00 0.00 28 1011.9
20260902224604 100 217 15.0 23.0 0.00 0.00 0.00 27 1011.9
20260902224046 100 203 15.0 23.0 0.00 0.00 0.00 27 1011.8
20260902223546 100 239 13.0 23.0 0.00 0.00 0.00 27 1011.8
20260902223117 100 191 13.0 21.0 0.00 0.00 0.00 27 1011.8
20260902222546 100 174 15.0 21.0 0.00 0.00 0.00 27 1011.8
20260902222045 100 170 14.0 22.0 0.00 0.00 0.00 27 1011.8
20260902221557 99 173 15.0 22.0 0.00 0.00 0.00 27 1011.9
20260902221050 100 158 14.0 22.0 0.00 0.00 0.00 27 1011.9
20260902220546 100 217 15.0 22.0 0.00 0.00 0.00 27 1011.8
20260902220109 99 180 13.0 24.0 0.00 0.00 0.00 27 1011.9
20260902215547 100 205 14.0 24.0 0.00 0.00 0.00 28 1011.9
20260902215048 100 224 18.0 24.0 0.00 0.00 0.00 28 1011.8
20260902214608 100 247 12.0 25.0 0.00 0.00 0.00 28 1011.9
20260902214047 100 207 15.0 25.0 0.00 0.00 0.00 27 1012.1
20260902213548 100 198 14.0 20.0 0.00 0.00 0.00 27 1012.1
20260902213105 100 169 11.0 25.0 0.00 0.00 0.00 28 1012.1